Location: *
(50.8512°N, 5.6907°E)
Time: 14:06:30
(UTC+00:00)

Resurs 01 Rocket - Pass Details

Date: 09 April 2020
Orbit: 635 x 644 km, 98.0° (Epoch: 03 June)

Event Time Altitude Azimuth Distance (km) Brightness Sun altitude
Exits shadow 19:17:45 - 136° (SE) 2,063 3.7 -8.9°
Reaches altitude 10° 19:17:52 10° 136° (SE) 2,022 3.6 -8.9°
Maximum altitude 19:21:58 40° 67° (ENE) 950 2.2 -9.5°
Drops below altitude 10° 19:26:06 10° 359° (N) 2,040 4.6 -10.1°
Sets 19:28:25 0° 352° (N) 2,956 5.6 -10.4°
